Location: Meanaryar
(48.4161°N, 4.7315°W)
Time: 10:27:14
(UTC+00:00)

NOSS 2-2 (D) - Pass Details

Date: 18 September 2020
Orbit: 469 x 1739 km, 63.3° (Epoch: 23 October)

Event Time Altitude Azimuth Distance (km) Brightness Sun altitude
Rises 19:19:20 0° 197° (SSW) 2,511 6.7 -9.8°
Reaches altitude 10° 19:21:31 10° 187° (S) 1,623 5.7 -10.2°
Maximum altitude 19:24:42 34° 121° (ESE) 819 3.7 -10.7°
Drops below altitude 10° 19:28:11 10° 55° (NE) 1,777 5.5 -11.3°
Sets 19:30:40 0° 47° (NE) 2,795 6.6 -11.7°
